| time (UTC) | temp F | wind direction | speed knots | gust knots | rain 1hr in | rain 24hr in | rain mn in | humidity % | barometer mb |
| 20260506101537 | 44 | 39 | 0.0 | 2.6 | 0.02 | 1.18 | 0.32 | 98 | 1005.4 |
| 20260506100035 | 44 | 58 | 0.9 | 2.6 | 0.04 | 1.18 | 0.32 | 98 | 1004.8 |
| 20260506094535 | 44 | 28 | 1.7 | 6.1 | 0.04 | 1.18 | 0.32 | 97 | 1005.5 |
| 20260506093032 | 45 | 291 | 0.9 | 5.2 | 0.03 | 1.17 | 0.31 | 98 | 1006.1 |
| 20260506091530 | 45 | 347 | 2.6 | 7.8 | 0.03 | 1.15 | 0.30 | 98 | 1006.0 |
| 20260506090029 | 45 | 326 | 0.0 | 5.2 | 0.03 | 1.13 | 0.28 | 98 | 1005.6 |
| 20260506084603 | 45 | 15 | 0.0 | 2.6 | 0.04 | 1.13 | 0.28 | 98 | 1005.6 |
| 20260506083027 | 44 | 29 | 0.0 | 4.3 | 0.06 | 1.13 | 0.28 | 97 | 1005.4 |
| 20260506081536 | 44 | 355 | 0.0 | 4.3 | 0.06 | 1.12 | 0.27 | 97 | 1005.6 |
| 20260506073021 | 45 | 58 | 0.9 | 4.3 | 0.07 | 1.08 | 0.22 | 97 | 1005.4 |
| 20260506071519 | 45 | 333 | 0.0 | 3.5 | 0.05 | 1.06 | 0.20 | 97 | 1005.1 |
| 20260506061514 | 45 | 23 | 0.0 | 1.7 | 0.10 | 1.01 | 0.15 | 97 | 1005.4 |
| 20260506044503 | 46 | 16 | 2.6 | 4.3 | 0.05 | 0.89 | 0.03 | 97 | 1005.7 |
| 20260506043100 | 46 | 33 | 0.9 | 5.2 | 0.06 | 0.88 | 0.02 | 97 | 1005.8 |
| 20260506041607 | 47 | 9 | 0.9 | 8.7 | 0.07 | 0.87 | 0.01 | 97 | 1005.9 |
| 20260506040055 | 47 | 51 | 1.7 | 5.2 | 0.08 | 0.86 | 0.00 | 97 | 1006.0 |
| 20260506034555 | 48 | 350 | 0.9 | 2.6 | 0.08 | 0.84 | 0.84 | 98 | 1006.2 |
| 20260506033050 | 48 | 38 | 0.9 | 3.5 | 0.10 | 0.82 | 0.82 | 98 | 1006.2 |
| 20260506031549 | 48 | 48 | 0.9 | 3.5 | 0.12 | 0.80 | 0.80 | 97 | 1006.2 |
| 20260506030047 | 48 | 321 | 0.0 | 0.0 | 0.12 | 0.78 | 0.78 | 98 | 1006.5 |
| 20260506024546 | 48 | 321 | 0.0 | 0.0 | 0.13 | 0.76 | 0.76 | 98 | 1006.6 |
| 20260506023100 | 48 | 322 | 0.0 | 0.0 | 0.12 | 0.72 | 0.72 | 97 | 1006.1 |
| 20260506021605 | 48 | 39 | 0.0 | 4.3 | 0.12 | 0.68 | 0.68 | 97 | 1006.0 |
| 20260506020041 | 48 | 42 | 0.9 | 3.5 | 0.15 | 0.66 | 0.66 | 97 | 1005.6 |
| 20260506014540 | 48 | 30 | 1.7 | 3.5 | 0.15 | 0.63 | 0.63 | 97 | 1005.6 |
| 20260506013039 | 48 | 39 | 1.7 | 4.3 | 0.17 | 0.59 | 0.59 | 97 | 1005.7 |
| 20260506011540 | 49 | 76 | 0.0 | 1.7 | 0.14 | 0.55 | 0.55 | 97 | 1005.6 |
| 20260506010038 | 49 | 77 | 0.0 | 4.3 | 0.10 | 0.51 | 0.51 | 97 | 1005.4 |
| 20260506004536 | 48 | 92 | 0.0 | 3.5 | 0.07 | 0.48 | 0.48 | 97 | 1005.2 |
| 20260506003037 | 48 | 90 | 0.9 | 3.5 | 0.03 | 0.42 | 0.42 | 97 | 1005.1 |
| 20260506001536 | 49 | 90 | 0.9 | 2.6 | 0.04 | 0.41 | 0.41 | 97 | 1005.0 |
| 20260506000033 | 49 | 29 | 1.7 | 4.3 | 0.08 | 0.41 | 0.41 | 96 | 1005.0 |
| 20260505234530 | 49 | 32 | 0.9 | 5.2 | 0.21 | 0.41 | 0.41 | 96 | 1004.9 |
| 20260505233028 | 50 | 26 | 1.7 | 5.2 | 0.23 | 0.39 | 0.39 | 96 | 1004.9 |
| 20260505231541 | 51 | 5 | 1.7 | 2.6 | 0.22 | 0.37 | 0.37 | 96 | 1005.2 |
| 20260505230026 | 51 | 337 | 1.7 | 4.3 | 0.20 | 0.33 | 0.33 | 96 | 1005.2 |
| 20260505224520 | 52 | 338 | 1.7 | 7.0 | 0.06 | 0.19 | 0.19 | 96 | 1005.3 |
| 20260505223018 | 54 | 46 | 4.3 | 9.6 | 0.03 | 0.16 | 0.16 | 94 | 1004.6 |
| 20260505221514 | 56 | 307 | 0.0 | 2.6 | 0.03 | 0.15 | 0.15 | 96 | 1004.6 |
| 20260505220012 | 56 | 308 | 0.0 | 4.3 | 0.02 | 0.13 | 0.13 | 96 | 1004.7 |
| 20260505214512 | 56 | 273 | 0.9 | 3.5 | 0.09 | 0.13 | 0.13 | 96 | 1004.6 |
| 20260505213017 | 56 | 279 | 0.0 | 6.1 | 0.11 | 0.13 | 0.13 | 96 | 1004.6 |
| 20260505211513 | 57 | 237 | 1.7 | 5.2 | 0.11 | 0.12 | 0.12 | 95 | 1004.6 |
| 20260505210013 | 57 | 260 | 2.6 | 7.0 | 0.10 | 0.11 | 0.11 | 94 | 1004.7 |
| 20260505204506 | 57 | 288 | 2.6 | 6.1 | 0.03 | 0.04 | 0.04 | 93 | 1004.7 |
| 20260505203125 | 58 | 300 | 0.0 | 4.3 | 0.03 | 0.03 | 0.03 | 93 | 1004.4 |
| 20260505201501 | 58 | 309 | 1.7 | 7.8 | 0.01 | 0.01 | 0.01 | 91 | 1004.7 |
| 20260505200059 | 59 | 302 | 2.6 | 7.0 | 0.01 | 0.01 | 0.01 | 89 | 1004.5 |
| 20260505194557 | 60 | 287 | 3.5 | 7.0 | 0.01 | 0.01 | 0.01 | 86 | 1004.5 |
| 20260505193055 | 62 | 249 | 2.6 | 7.8 | 0.00 | 0.00 | 0.00 | 82 | 1004.6 |
| 20260505191608 | 63 | 293 | 2.6 | 7.8 | 0.00 | 0.00 | 0.00 | 80 | 1004.5 |
| 20260505190055 | 63 | 229 | 3.5 | 7.8 | 0.00 | 0.00 | 0.00 | 78 | 1004.7 |
| 20260505184555 | 63 | 256 | 1.7 | 7.8 | 0.00 | 0.00 | 0.00 | 78 | 1004.8 |
| 20260505183053 | 63 | 247 | 4.3 | 8.7 | 0.00 | 0.00 | 0.00 | 76 | 1004.9 |
| 20260505181552 | 64 | 306 | 5.2 | 13.0 | 0.00 | 0.00 | 0.00 | 75 | 1004.9 |
| 20260505180053 | 64 | 284 | 1.7 | 8.7 | 0.00 | 0.00 | 0.00 | 76 | 1004.8 |
| 20260505174550 | 64 | 269 | 3.5 | 14.8 | 0.00 | 0.00 | 0.00 | 75 | 1004.7 |
| 20260505173055 | 64 | 266 | 4.3 | 12.2 | 0.00 | 0.00 | 0.00 | 74 | 1004.5 |
| 20260505171550 | 64 | 280 | 6.1 | 12.2 | 0.00 | 0.00 | 0.00 | 72 | 1004.6 |
| 20260505170103 | 64 | 277 | 4.3 | 9.6 | 0.00 | 0.00 | 0.00 | 72 | 1004.5 |
| 20260505164547 | 65 | 270 | 6.1 | 12.2 | 0.00 | 0.00 | 0.00 | 71 | 1004.5 |
| 20260505163044 | 65 | 236 | 7.8 | 15.6 | 0.00 | 0.00 | 0.00 | 70 | 1004.5 |
| 20260505161643 | 66 | 288 | 6.1 | 13.0 | 0.00 | 0.00 | 0.00 | 69 | 1004.5 |
| 20260505153037 | 66 | 297 | 7.0 | 14.8 | 0.00 | 0.00 | 0.00 | 67 | 1003.6 |
| 20260505151553 | 66 | 257 | 4.3 | 11.3 | 0.00 | 0.00 | 0.00 | 68 | 1003.5 |
| 20260505124526 | 60 | 171 | 2.6 | 10.4 | 0.00 | 0.00 | 0.00 | 81 | 1003.7 |
| 20260505123025 | 60 | 268 | 1.7 | 8.7 | 0.00 | 0.00 | 0.00 | 81 | 1003.4 |
| 20260505121523 | 60 | 269 | 3.5 | 13.0 | 0.00 | 0.00 | 0.00 | 80 | 1003.2 |
| 20260505120020 | 60 | 254 | 6.1 | 13.9 | 0.00 | 0.00 | 0.00 | 79 | 1002.7 |
| 20260505114519 | 59 | 275 | 5.2 | 10.4 | 0.00 | 0.00 | 0.00 | 80 | 1002.3 |
| 20260505113020 | 59 | 239 | 2.6 | 16.5 | 0.00 | 0.00 | 0.00 | 82 | 1002.2 |
| 20260505111513 | 60 | 222 | 3.5 | 11.3 | 0.00 | 0.00 | 0.00 | 80 | 1002.5 |